User: anonymous   Login
Location: Mat�lon
(46.2791°N, 7.1028°E)
Time: 23:41:51
(UTC+00:00)
Language:

Cosmos 2278 Rocket - Orbit

View from above orbital plane
View from above orbital plane
View from above satellite
View from above satellite

Ground track
Ground track

The orbit data is extracted from the following two-line orbital elements,

1 23088U 94023B   21127.52796490  .00000141  00000-0  97879-4 0  9994
2 23088  70.9999 180.9094 0001242 124.0275 236.0965 14.14688372396145
Epoch (UTC): 07 May 2021 12:40:16
Eccentricity: 0.0001242
inclination: 70.9999°
perigee height: 842 km
apogee height: 844 km
right ascension of ascending node: 180.9094°
argument of perigee: 124.0275°
revolutions per day: 14.14688372
mean anomaly at epoch: 236.0965°
orbit number at epoch: 39614

The dashed part of the orbit path shows where the satellite is in the earth's shadow,  

DLR